SCP
0 0 0 0 0 0 0 0 0 0 0 0 0 0 0 0 1 1 0 1 2 1 0 0 0 0 0 0 0 0 0 0 0 0 0 0 0 0 0 0 0 0 0
0 0 0 0 0 0 0 0 0 0 0 0 0 0 1 1 0 0 0 0 1 0 0 0 0 0 0 0 0 0 0 0 0 0 0 0 0 0 0 0 0 0 0
0 0 0 0 0 0 0 0 0 0 0 0 0 0 0 0 0 0 0 0 0 1 1 0 0 0 0 0 0 0 0 0 0 0 0 0 0 0 0 0 0 0 0
0 0 0 0 -0 0 0 0 0 0 0 0 0 0 0 0 0 0 0 0 0 0 0 0 0 0 0 0 0 0 0 0 0 0 0 0 0 0 0 0 0 0 0
0 0 0 0 0 0 0 0 0 0 0 0 0 0 0 0 0 0 0 0 0 0 0 0 0 0 0 0 -0 0 0 0 0 0 0 0 0 0 0 0 0 0 0
0 0 0 0 0 0 0 0 0 0 0 0 0 0 0 0 0 0 0 0 0 0 0 0 0 0 0 -0 0 0 0 0 0 0 0 0 0 0 0 0 0 0 0
0 0 0 0 -0 0 0 0 0 0 0 0 0 0 0 0 0 0 0 0 0 0 0 0 0 0 0 -0 0 0 0 0 0 0 0 0 0 0 0 0 0 0 0
0 -0 -0 -0 -0 -0 -0 -0 0 0 0 0 0 0 0 0 0 0 0 0 0 0 0 0 0 0 0 0 0 0 0 0 0 0 0 -0 -0 0 0 0 0 0 0
0 -0 -0 0 -0 -0 -0 0 0 0 1 0 0 0 0 0 0 0 0 0 0 0 0 0 0 0 0 0 0 0 0 0 0 0 0 -0 -0 0 0 0 0 0 0
0 0 0 -0 -0 -0 0 0 0 1 0 0 0 0 0 0 0 0 0 0 0 0 0 0 0 0 0 0 0 0 0 0 0 0 0 0 0 -0 0 0 0 0 0
0 0 0 0 0 0 0 1 1 0 0 0 0 0 0 0 0 0 0 0 0 0 0 0 0 0 0 0 0 0 0 0 0 0 0 0 0 0 0 0 0 0 0
0 0 0 0 0 0 1 0 0 0 0 0 0 0 0 0 0 0 0 0 0 0 0 0 0 0 0 0 0 0 0 0 0 0 0 0 0 0 0 0 0 0 0
0 0 0 0 0 0 0 0 0 0 0 0 0 0 0 0 0 0 0 0 0 0 0 0 0 0 0 0 0 0 0 0 0 0 0 0 0 0 0 0 0 0 0
0 0 0 0 0 0 0 0 0 0 0 0 0 0 0 0 0 0 0 0 0 0 0 0 0 0 0 0 0 0 0 0 0 0 0 0 0 0 0 0 0 0 0
0 0 0 0 0 0 0 0 0 0 0 0 0 0 0 0 0 0 0 0 0 0 0 0 0 0 0 0 0 0 0 0 0 0 0 0 0 0 0 0 0 0 0
0 0 0 0 0 0 0 0 0 0 0 0 0 0 0 0 0 0 0 0 0 0 0 0 0 0 0 0 0 0 0 0 0 0 0 0 0 0 0 0 0 0 0
0 0 0 0 0 0 0 0 0 0 0 0 0 0 0 0 0 0 0 0 0 0 0 0 0 0 0 0 0 0 0 0 0 0 0 0 0 0 0 0 0 0 0
0 0 0 0 0 0 0 0 0 0 0 0 0 0 0 0 0 0 0 0 0 0 0 0 0 0 0 0 0 0 0 0 0 0 0 0 0 0 0 0 0 0 0
0 0 0 0 0 0 0 0 0 0 0 0 0 0 0 0 0 0 0 0 0 0 0 0 0 0 0 0 0 0 0 0 0 0 0 0 0 0 0 0 0 0 0
0 0 0 0 0 0 0 0 0 0 0 0 0 0 0 0 0 0 0 0 0 0 0 0 0 0 0 0 0 0 0 0 0 0 0 0 0 0 0 0 0 0 0
0 0 0 0 0 0 0 0 0 0 0 0 0 0 0 0 0 0 0 0 0 0 0 0 0 0 0 0 0 0 0 0 0 0 0 0 0 0 0 0 0 0 0
0 0 0 0 0 0 0 0 0 0 0 0 0 0 0 0 0 0 0 0 0 0 0 0 0 0 0 0 0 0 0 0 0 0 0 0 0 0 0 0 0 0 0
0 0 0 0 0 0 0 0 0 0 0 0 0 0 0 0 0 0 0 0 0 0 0 0 0 0 0 0 0 0 0 0 0 0 0 0 0 0 0 0 0 0 0
0 0 0 0 -0 0 0 0 0 0 0 0 0 0 0 0 0 0 0 0 0 0 0 0 0 0 0 0 0 0 0 0 0 0 0 -0 0 0 0 0 -0 -0 -0
0 0 0 0 0 0 0 0 0 0 0 0 0 0 0 0 0 0 0 0 0 0 0 -0 -0 -0 0 -0 0 0 0 0 0 0 0 0 0 0 0 0 -0 -0 -0
0 -0 -0 -0 -0 -0 0 0 0 0 0 0 0 0 0 0 0 0 0 0 0 0 -0 0 0 0 0 0 -0 0 0 0 0 0 0 0 0 0 0 0 -0 -0 0
Wind_Speed_500mb
33 32 36 38 39 34 37 40 43 43 47 52 50 46 50 51 52 55 48 54 55 57 64 54 55 53 61 51 55 56 47 39 40 41 42 37 35 31 27 28 28 29 29
19 20 24 30 40 41 40 44 52 57 62 57 60 60 59 56 59 63 65 58 50 63 59 51 60 70 70 71 66 51 43 36 39 37 41 39 36 33 29 32 33 35 37
26 29 30 28 33 40 52 57 62 65 68 64 64 65 65 66 65 75 72 67 59 55 56 63 78 84 79 77 76 59 47 38 37 35 38 36 39 39 36 36 37 37 40
37 41 45 45 43 42 50 60 68 74 72 72 74 69 63 63 71 78 63 61 63 62 66 69 63 70 67 32 32 32 33 26 26 27 34 35 37 35 35 32 34 33 32
59 60 54 51 53 54 57 58 68 80 83 82 76 70 69 72 70 62 66 70 74 72 57 39 30 44 39 23 8 25 27 20 20 26 29 31 32 36 36 36 40 42 42
57 55 50 47 46 59 52 42 61 71 88 83 76 71 74 73 73 72 75 76 66 48 38 33 36 32 26 11 22 27 23 21 14 15 21 27 34 37 38 38 42 44 44
52 40 47 69 66 60 76 87 74 63 77 79 69 68 69 69 61 55 42 38 29 28 28 31 30 22 23 26 29 25 24 21 18 10 2 7 8 18 19 22 20 27 34
56 52 71 69 77 85 82 79 80 58 58 60 62 66 49 38 31 16 15 18 14 15 20 22 22 25 29 37 32 30 25 23 27 22 17 20 25 20 20 22 25 28 30
48 62 63 52 61 77 88 92 64 55 61 58 55 36 19 13 19 10 7 11 10 15 16 19 24 23 31 37 38 39 35 33 35 30 31 28 32 32 29 27 28 30 27
18 23 46 59 72 57 47 45 42 43 44 39 45 45 45 33 11 8 14 13 20 16 20 25 23 25 35 41 45 46 41 40 42 39 39 44 41 38 31 29 33 34 33
23 42 42 40 44 40 40 37 40 41 40 31 34 43 29 30 22 21 25 11 10 12 17 25 29 36 41 46 50 46 44 44 44 46 45 44 45 40 42 40 38 36 34
20 26 34 39 38 38 38 38 41 32 29 28 28 22 29 24 18 14 15 14 15 11 15 13 17 23 32 46 53 47 42 50 50 52 49 51 49 50 48 47 41 37 35
31 32 35 35 35 34 33 31 25 21 13 9 9 15 17 18 8 4 7 4 2 5 5 16 14 13 13 17 21 29 37 39 42 47 53 53 55 50 53 50 43 41 45
35 31 32 32 29 22 18 19 17 9 2 1 1 4 2 4 7 8 14 19 20 16 17 17 8 10 9 11 13 15 18 32 42 50 49 53 53 51 52 49 46 51 59
38 28 21 18 16 11 5 3 2 6 10 9 8 8 6 3 4 11 22 26 23 10 14 12 15 21 24 27 30 29 32 32 36 44 49 50 49 51 56 63 74 69 64
40 25 13 8 6 4 5 8 10 10 11 10 6 4 5 5 12 20 26 28 27 24 19 20 28 35 36 35 37 37 37 40 44 49 54 62 63 66 62 61 60 63 64
43 28 6 6 10 13 10 8 7 9 6 2 3 9 12 15 18 21 26 27 26 25 22 23 29 35 43 46 48 52 53 51 52 55 58 60 63 63 65 63 57 52 56
41 32 13 11 18 19 19 15 10 6 7 9 7 6 9 12 20 20 19 22 25 28 31 36 42 46 49 48 44 43 39 37 40 40 38 38 36 38 35 38 40 40 41
43 38 34 33 37 30 29 25 19 17 14 7 12 12 16 21 26 26 26 30 35 40 45 42 34 33 32 29 32 31 32 32 32 35 39 37 34 28 24 23 22 21 25
39 35 27 13 29 30 29 21 13 9 5 3 8 18 19 22 25 27 30 32 36 37 29 25 27 24 20 22 25 28 25 28 30 30 18 18 18 19 22 19 23 25 24
31 18 9 22 28 27 26 28 18 16 16 21 19 19 20 18 23 26 32 32 25 20 23 25 19 17 18 22 25 27 30 31 26 13 6 11 5 8 8 18 15 21 19
7 21 30 24 28 31 32 25 16 20 21 11 7 7 15 22 21 24 22 13 13 20 20 22 21 22 22 23 23 28 29 23 27 8 2 11 8 5 5 11 14 12 10
35 26 28 26 23 18 20 24 24 15 4 5 7 8 15 21 28 19 10 9 10 11 17 20 22 22 26 20 20 23 24 17 20 13 8 4 1 3 11 7 3 8 12
30 33 33 36 33 29 23 11 8 4 4 7 13 18 23 25 17 13 15 12 10 16 24 23 24 23 21 19 17 19 19 17 10 9 5 1 9 9 11 2 9 17 18
32 35 40 41 40 34 23 13 7 4 7 11 16 20 18 14 14 19 20 21 19 20 19 22 21 19 18 11 6 10 11 17 18 21 10 3 8 4 3 8 18 22 30
35 33 42 46 41 39 36 27 18 15 17 18 19 20 20 16 18 25 25 25 20 21 22 19 13 14 15 3 3 1 6 8 11 7 15 6 16 8 2 9 20 27 16
Wind_Direction_500mb
250 256 256 249 255 261 266 274 278 277 277 270 268 260 261 264 260 249 256 265 258 257 253 266 270 269 267 269 272 286 285 277 259 248 256 262 256 259 265 259 264 270 273
250 265 269 273 268 263 268 272 273 276 277 274 266 264 266 265 261 254 262 267 259 266 263 261 276 281 276 268 268 274 283 275 261 249 244 251 254 257 264 256 255 260 263
251 266 270 276 287 275 270 271 274 276 278 277 270 267 268 264 260 260 258 262 265 255 263 279 293 280 265 264 254 254 270 270 256 245 237 245 242 248 256 255 257 259 260
245 247 249 254 252 262 267 273 273 276 276 276 277 275 264 260 260 258 265 273 265 268 281 286 279 258 257 223 226 250 267 260 244 241 242 240 240 250 258 260 264 264 270
240 239 246 258 255 254 259 273 279 279 276 275 275 269 269 263 264 262 273 276 281 280 279 279 284 243 228 256 288 268 266 252 251 248 251 252 255 261 265 268 273 277 277
243 247 251 261 274 263 252 267 293 281 275 270 269 264 274 279 274 279 283 288 280 264 259 261 274 265 264 235 255 262 258 257 256 274 264 261 259 261 271 280 279 279 279
236 241 266 285 268 266 271 283 297 286 273 271 274 283 293 297 295 294 284 274 276 256 259 256 270 255 262 230 257 261 271 261 254 269 319 301 292 274 294 293 294 287 291
312 274 270 295 273 265 280 286 294 281 276 282 287 293 293 293 299 280 274 287 283 264 243 236 236 245 249 250 266 262 268 258 252 254 232 247 240 264 269 287 293 298 305
311 266 282 293 280 267 273 280 280 279 284 289 293 281 279 225 295 250 251 308 271 243 232 218 220 233 244 256 263 259 260 258 246 244 250 249 246 244 255 280 287 301 307
272 269 242 277 283 270 270 274 282 285 286 289 296 290 289 259 244 280 251 251 269 232 233 222 229 242 254 257 261 263 267 263 256 245 241 238 244 231 238 253 272 289 288
278 264 265 275 272 267 267 269 276 283 289 287 288 291 237 245 256 256 276 230 244 247 242 245 241 247 256 266 264 265 261 257 256 260 259 248 247 248 250 253 263 272 275
295 291 279 268 272 271 276 282 285 292 295 290 287 268 269 244 244 233 237 281 299 278 283 264 240 246 254 257 258 257 260 266 261 257 259 250 259 254 254 258 257 262 262
323 315 306 301 291 285 287 295 297 293 293 295 251 250 246 236 220 226 308 353 143 191 276 304 314 298 266 252 249 239 245 252 254 256 252 252 259 253 248 250 255 261 271
330 323 318 311 301 295 292 291 295 298 159 195 159 136 188 224 263 286 298 302 313 311 298 288 241 187 198 224 241 246 241 240 242 244 236 243 243 245 248 251 258 275 286
333 327 320 322 335 341 344 115 82 90 93 85 90 99 92 58 329 290 288 301 313 307 301 250 244 258 271 285 289 279 268 252 243 240 243 248 255 263 269 272 288 290 281
346 339 303 295 301 357 46 57 57 80 81 72 79 31 343 296 273 279 288 294 297 290 269 248 258 277 283 285 284 281 277 270 263 263 266 270 270 270 271 274 278 280 276
323 334 318 156 151 145 140 139 150 136 115 75 290 265 275 275 285 289 287 285 280 279 277 261 267 277 286 291 292 294 294 289 284 279 276 273 272 269 268 274 276 270 264
306 308 267 201 182 178 182 191 224 235 209 216 196 223 248 261 279 284 287 292 298 298 300 298 294 295 297 301 305 303 304 305 302 294 283 273 272 268 262 266 267 265 262
321 302 267 244 235 215 187 174 184 190 185 206 261 277 290 292 294 296 305 308 307 309 312 310 309 309 307 305 307 310 315 307 296 297 283 270 265 260 258 263 255 262 269
316 310 286 231 212 175 150 88 83 103 64 343 321 304 295 304 309 316 319 321 318 316 316 322 323 323 323 324 319 320 320 314 309 308 302 276 258 265 258 265 252 254 259
299 287 228 133 93 80 90 99 25 20 7 334 313 312 320 320 316 315 315 316 315 323 337 340 346 343 335 327 328 326 319 320 326 314 3 88 227 285 257 276 268 261 267
61 111 99 75 45 14 9 23 354 341 320 294 322 328 321 320 316 325 327 331 335 343 352 348 353 341 334 328 321 316 323 322 339 360 168 93 20 308 294 290 263 278 280
111 87 64 42 29 345 7 3 356 345 311 339 355 353 341 341 335 346 12 4 350 356 351 345 347 350 348 353 354 5 359 342 303 320 341 118 318 0 339 272 295 319 291
66 63 64 60 50 39 19 56 84 71 356 4 358 356 342 335 350 23 27 29 40 37 35 17 357 359 349 3 4 359 352 355 43 86 152 225 5 339 324 86 9 347 337
79 72 59 42 29 36 48 62 43 4 1 17 17 349 350 28 46 42 69 79 66 43 17 355 351 340 328 339 12 11 8 32 53 72 88 151 357 237 192 19 347 338 326
60 49 46 40 39 41 49 58 73 69 52 33 25 16 38 61 64 86 78 74 56 33 9 7 9 7 3 238 258 22 75 48 48 61 53 101 30 54 332 315 331 342 345
Wind_Speed_850mb
33 32 36 38 39 34 37 40 43 43 47 52 50 46 50 51 52 55 48 54 55 57 64 54 55 53 61 51 55 56 47 39 40 41 42 37 35 31 27 28 28 29 29
19 20 24 30 40 41 40 44 52 57 62 57 60 60 59 56 59 63 65 58 50 63 59 51 60 70 70 71 66 51 43 36 39 37 41 39 36 33 29 32 33 35 37
26 29 30 28 33 40 52 57 62 65 68 64 64 65 65 66 65 75 72 67 59 55 56 63 78 84 79 77 76 59 47 38 37 35 38 36 39 39 36 36 37 37 40
37 41 45 45 43 42 50 60 68 74 72 72 74 69 63 63 71 78 63 61 63 62 66 69 63 70 67 32 32 32 33 26 26 27 34 35 37 35 35 32 34 33 32
59 60 54 51 53 54 57 58 68 80 83 82 76 70 69 72 70 62 66 70 74 72 57 39 30 44 39 23 8 25 27 20 20 26 29 31 32 36 36 36 40 42 42
57 55 50 47 46 59 52 42 61 71 88 83 76 71 74 73 73 72 75 76 66 48 38 33 36 32 26 11 22 27 23 21 14 15 21 27 34 37 38 38 42 44 44
52 40 47 69 66 60 76 87 74 63 77 79 69 68 69 69 61 55 42 38 29 28 28 31 30 22 23 26 29 25 24 21 18 10 2 7 8 18 19 22 20 27 34
56 52 71 69 77 85 82 79 80 58 58 60 62 66 49 38 31 16 15 18 14 15 20 22 22 25 29 37 32 30 25 23 27 22 17 20 25 20 20 22 25 28 30
48 62 63 52 61 77 88 92 64 55 61 58 55 36 19 13 19 10 7 11 10 15 16 19 24 23 31 37 38 39 35 33 35 30 31 28 32 32 29 27 28 30 27
18 23 46 59 72 57 47 45 42 43 44 39 45 45 45 33 11 8 14 13 20 16 20 25 23 25 35 41 45 46 41 40 42 39 39 44 41 38 31 29 33 34 33
23 42 42 40 44 40 40 37 40 41 40 31 34 43 29 30 22 21 25 11 10 12 17 25 29 36 41 46 50 46 44 44 44 46 45 44 45 40 42 40 38 36 34
20 26 34 39 38 38 38 38 41 32 29 28 28 22 29 24 18 14 15 14 15 11 15 13 17 23 32 46 53 47 42 50 50 52 49 51 49 50 48 47 41 37 35
31 32 35 35 35 34 33 31 25 21 13 9 9 15 17 18 8 4 7 4 2 5 5 16 14 13 13 17 21 29 37 39 42 47 53 53 55 50 53 50 43 41 45
35 31 32 32 29 22 18 19 17 9 2 1 1 4 2 4 7 8 14 19 20 16 17 17 8 10 9 11 13 15 18 32 42 50 49 53 53 51 52 49 46 51 59
38 28 21 18 16 11 5 3 2 6 10 9 8 8 6 3 4 11 22 26 23 10 14 12 15 21 24 27 30 29 32 32 36 44 49 50 49 51 56 63 74 69 64
40 25 13 8 6 4 5 8 10 10 11 10 6 4 5 5 12 20 26 28 27 24 19 20 28 35 36 35 37 37 37 40 44 49 54 62 63 66 62 61 60 63 64
43 28 6 6 10 13 10 8 7 9 6 2 3 9 12 15 18 21 26 27 26 25 22 23 29 35 43 46 48 52 53 51 52 55 58 60 63 63 65 63 57 52 56
41 32 13 11 18 19 19 15 10 6 7 9 7 6 9 12 20 20 19 22 25 28 31 36 42 46 49 48 44 43 39 37 40 40 38 38 36 38 35 38 40 40 41
43 38 34 33 37 30 29 25 19 17 14 7 12 12 16 21 26 26 26 30 35 40 45 42 34 33 32 29 32 31 32 32 32 35 39 37 34 28 24 23 22 21 25
39 35 27 13 29 30 29 21 13 9 5 3 8 18 19 22 25 27 30 32 36 37 29 25 27 24 20 22 25 28 25 28 30 30 18 18 18 19 22 19 23 25 24
31 18 9 22 28 27 26 28 18 16 16 21 19 19 20 18 23 26 32 32 25 20 23 25 19 17 18 22 25 27 30 31 26 13 6 11 5 8 8 18 15 21 19
7 21 30 24 28 31 32 25 16 20 21 11 7 7 15 22 21 24 22 13 13 20 20 22 21 22 22 23 23 28 29 23 27 8 2 11 8 5 5 11 14 12 10
35 26 28 26 23 18 20 24 24 15 4 5 7 8 15 21 28 19 10 9 10 11 17 20 22 22 26 20 20 23 24 17 20 13 8 4 1 3 11 7 3 8 12
30 33 33 36 33 29 23 11 8 4 4 7 13 18 23 25 17 13 15 12 10 16 24 23 24 23 21 19 17 19 19 17 10 9 5 1 9 9 11 2 9 17 18
32 35 40 41 40 34 23 13 7 4 7 11 16 20 18 14 14 19 20 21 19 20 19 22 21 19 18 11 6 10 11 17 18 21 10 3 8 4 3 8 18 22 30
35 33 42 46 41 39 36 27 18 15 17 18 19 20 20 16 18 25 25 25 20 21 22 19 13 14 15 3 3 1 6 8 11 7 15 6 16 8 2 9 20 27 16
Wind_Direction_850mb
250 256 256 249 255 261 266 274 278 277 277 270 268 260 261 264 260 249 256 265 258 257 253 266 270 269 267 269 272 286 285 277 259 248 256 262 256 259 265 259 264 270 273
250 265 269 273 268 263 268 272 273 276 277 274 266 264 266 265 261 254 262 267 259 266 263 261 276 281 276 268 268 274 283 275 261 249 244 251 254 257 264 256 255 260 263
251 266 270 276 287 275 270 271 274 276 278 277 270 267 268 264 260 260 258 262 265 255 263 279 293 280 265 264 254 254 270 270 256 245 237 245 242 248 256 255 257 259 260
245 247 249 254 252 262 267 273 273 276 276 276 277 275 264 260 260 258 265 273 265 268 281 286 279 258 257 223 226 250 267 260 244 241 242 240 240 250 258 260 264 264 270
240 239 246 258 255 254 259 273 279 279 276 275 275 269 269 263 264 262 273 276 281 280 279 279 284 243 228 256 288 268 266 252 251 248 251 252 255 261 265 268 273 277 277
243 247 251 261 274 263 252 267 293 281 275 270 269 264 274 279 274 279 283 288 280 264 259 261 274 265 264 235 255 262 258 257 256 274 264 261 259 261 271 280 279 279 279
236 241 266 285 268 266 271 283 297 286 273 271 274 283 293 297 295 294 284 274 276 256 259 256 270 255 262 230 257 261 271 261 254 269 319 301 292 274 294 293 294 287 291
312 274 270 295 273 265 280 286 294 281 276 282 287 293 293 293 299 280 274 287 283 264 243 236 236 245 249 250 266 262 268 258 252 254 232 247 240 264 269 287 293 298 305
311 266 282 293 280 267 273 280 280 279 284 289 293 281 279 225 295 250 251 308 271 243 232 218 220 233 244 256 263 259 260 258 246 244 250 249 246 244 255 280 287 301 307
272 269 242 277 283 270 270 274 282 285 286 289 296 290 289 259 244 280 251 251 269 232 233 222 229 242 254 257 261 263 267 263 256 245 241 238 244 231 238 253 272 289 288
278 264 265 275 272 267 267 269 276 283 289 287 288 291 237 245 256 256 276 230 244 247 242 245 241 247 256 266 264 265 261 257 256 260 259 248 247 248 250 253 263 272 275
295 291 279 268 272 271 276 282 285 292 295 290 287 268 269 244 244 233 237 281 299 278 283 264 240 246 254 257 258 257 260 266 261 257 259 250 259 254 254 258 257 262 262
323 315 306 301 291 285 287 295 297 293 293 295 251 250 246 236 220 226 308 353 143 191 276 304 314 298 266 252 249 239 245 252 254 256 252 252 259 253 248 250 255 261 271
330 323 318 311 301 295 292 291 295 298 159 195 159 136 188 224 263 286 298 302 313 311 298 288 241 187 198 224 241 246 241 240 242 244 236 243 243 245 248 251 258 275 286
333 327 320 322 335 341 344 115 82 90 93 85 90 99 92 58 329 290 288 301 313 307 301 250 244 258 271 285 289 279 268 252 243 240 243 248 255 263 269 272 288 290 281
346 339 303 295 301 357 46 57 57 80 81 72 79 31 343 296 273 279 288 294 297 290 269 248 258 277 283 285 284 281 277 270 263 263 266 270 270 270 271 274 278 280 276
323 334 318 156 151 145 140 139 150 136 115 75 290 265 275 275 285 289 287 285 280 279 277 261 267 277 286 291 292 294 294 289 284 279 276 273 272 269 268 274 276 270 264
306 308 267 201 182 178 182 191 224 235 209 216 196 223 248 261 279 284 287 292 298 298 300 298 294 295 297 301 305 303 304 305 302 294 283 273 272 268 262 266 267 265 262
321 302 267 244 235 215 187 174 184 190 185 206 261 277 290 292 294 296 305 308 307 309 312 310 309 309 307 305 307 310 315 307 296 297 283 270 265 260 258 263 255 262 269
316 310 286 231 212 175 150 88 83 103 64 343 321 304 295 304 309 316 319 321 318 316 316 322 323 323 323 324 319 320 320 314 309 308 302 276 258 265 258 265 252 254 259
299 287 228 133 93 80 90 99 25 20 7 334 313 312 320 320 316 315 315 316 315 323 337 340 346 343 335 327 328 326 319 320 326 314 3 88 227 285 257 276 268 261 267
61 111 99 75 45 14 9 23 354 341 320 294 322 328 321 320 316 325 327 331 335 343 352 348 353 341 334 328 321 316 323 322 339 360 168 93 20 308 294 290 263 278 280
111 87 64 42 29 345 7 3 356 345 311 339 355 353 341 341 335 346 12 4 350 356 351 345 347 350 348 353 354 5 359 342 303 320 341 118 318 0 339 272 295 319 291
66 63 64 60 50 39 19 56 84 71 356 4 358 356 342 335 350 23 27 29 40 37 35 17 357 359 349 3 4 359 352 355 43 86 152 225 5 339 324 86 9 347 337
79 72 59 42 29 36 48 62 43 4 1 17 17 349 350 28 46 42 69 79 66 43 17 355 351 340 328 339 12 11 8 32 53 72 88 151 357 237 192 19 347 338 326
60 49 46 40 39 41 49 58 73 69 52 33 25 16 38 61 64 86 78 74 56 33 9 7 9 7 3 238 258 22 75 48 48 61 53 101 30 54 332 315 331 342 345